Regional Weather Roundup
Issued by NWS

Home | Current Version | Previous Version | Graphics & Text | Print | Product List | Glossary On
Versions: 1 2 3 4 5 6 7 8 9 10 11 12 13 14 15 16 17 18 19 20 21 22 23 24 25 26 27 28 29 30 31 32 33 34 35 36 37 38 39 40 41 42 43 44 45 46 47 48 49 50
000
ASUS45 KABQ 202010
RWRNM
NEW MEXICO REGIONAL WEATHER ROUNDUP
NATIONAL WEATHER SERVICE ALBUQUERQUE NM
100 PM MST MON NOV 20 2017

NOTE: "FAIR" MEANS FEW OR NO CLOUDS BELOW 12,000 FEET AGL WITH NO
       SIGNIFICANT WEATHER OR OBSTRUCTIONS TO VISION.

      THIS PRODUCT IS RELEASED AS TWO VERSIONS.  ONE VERSION NEAR
      THE TOP OF THE HOUR CONTAINING PRELIMINARY DATA FROM ALBUQUERQUE
      AND OTHER STATIONS.  A FINAL VERSION WITH ADDITIONAL DATA IS
      ISSUED ABOUT 10 MINUTES AFTER THE HOUR.

NMZ501-503-504-510>518-202100-
NORTHWEST PLATEAU/NORTHCENTRAL MOUNTAINS

CITY           SKY/WX    TMP DP  RH WIND       PRES   REMARKS
FARMINGTON     FAIR      45  10  24 VRB3      30.15F
LOS ALAMOS     FAIR      49  -4  11 S5        30.12F
SANTA FE       FAIR      52   3  13 SW13      30.09F
TAOS           FAIR      52   3  13 S10       30.10F
ANGEL FIRE     FAIR      48  -5  11 W20G25    30.09F

$$
NMZ402-403-502-505>509-202100-
WESTCENTRAL MOUNTAINS/SOUTHWEST MOUNTAINS

CITY           SKY/WX    TMP DP  RH WIND       PRES   REMARKS
GALLUP         FAIR      59  11  15 W14       30.15F
GRANTS         FAIR      54   4  13 NW3       30.14F
SILVER CITY    FAIR      65  19  17 S7        30.12F

$$
NMZ407-409-411-412-202100-
SOUTHERN DESERTS

CITY           SKY/WX    TMP DP  RH WIND       PRES   REMARKS
DEMING         FAIR      64  21  19 SW7       30.10F
LAS CRUCES     FAIR      63  14  15 SW7       30.10F
HOLLOMAN AFB   FAIR      66  14  13 CALM      30.09F
ALAMOGORDO     FAIR      63  12  14 NW6       30.08F
T OR C         FAIR      59   9  13 VRB5      30.09F

$$
NMZ519>523-202100-
CENTRAL VALLEYS/CENTRAL HIGHLANDS

CITY           SKY/WX    TMP DP  RH WIND       PRES   REMARKS
ALBUQUERQUE    CLOUDY    54   0  11 CALM      30.11F
DOUBLE EAGLE   PTSUNNY   54   7  15 S8        30.12F
MORIARTY ARPT  FAIR      61  -2   8 NW5       30.09F
CLINES CORNERS FAIR      54  -5   8 NW22G33   30.08F
BELEN          FAIR      54   6  14 CALM      30.11F
SOCORRO        FAIR      56   7  14 CALM      30.10F

$$
NMZ524>526-539-540-202100-
SOUTHCENTRAL MOUNTAINS

CITY           SKY/WX    TMP DP  RH WIND       PRES   REMARKS
RUIDOSO        FAIR      59   0   9 N9G20     30.10F

$$
NMZ527>531-202100-
NORTHEAST HIGHLANDS/NORTHEAST PLAINS

CITY           SKY/WX    TMP DP  RH WIND       PRES   REMARKS
LAS VEGAS      FAIR      61   2   9 S9        29.97F
RATON          FAIR      53   6  15 CALM      29.93F
CLAYTON        FAIR      67  -3   6 S10       29.85F

$$
NMZ532>537-202100-
EASTCENTRAL PLAINS

CITY           SKY/WX    TMP DP  RH WIND       PRES   REMARKS
SANTA ROSA     FAIR      65   1   8 W18       29.91F
TUCUMCARI      FAIR      71   0   6 W10       29.84F
CANNON AFB     FAIR      66   0   7 W21       29.91F
CLOVIS AIRPORT FAIR      67   8  10 W15G22    29.90F

$$
NMZ028-029-538-202100-
SOUTHEAST PLAINS

CITY           SKY/WX    TMP DP  RH WIND       PRES   REMARKS
ROSWELL        FAIR      66  19  16 S9        29.95F
ARTESIA        FAIR      66  25  20 SE8       29.96F
CARLSBAD       FAIR      66  29  24 SE9       29.95F
HOBBS          SUNNY     70  12  11 W13       29.96F


$$




USA.gov is the U.S. government's official web portal to all federal, state and local government web resources and services.